EHI
10 18 28 33 27 14 3 0 0 0 0 0 0 0 0 0 0 0 0 1 5 8 9 10 12 12 9 6 4 3 5 7 8 7 6 5 5 5 6 6 4 4 3 1 0 1 1 2 4
13 22 29 27 18 7 1 0 0 0 0 0 0 0 0 0 0 0 0 1 4 8 11 12 13 12 8 5 4 4 5 6 7 7 6 4 4 4 5 5 4 4 3 2 0 0 1 2 3
22 28 28 20 9 2 0 0 0 0 0 0 0 0 0 0 0 0 0 1 3 7 12 15 15 12 7 4 4 6 6 6 6 6 6 4 3 3 4 4 4 4 4 3 1 1 2 3 4
29 30 25 14 5 1 0 0 0 0 0 0 0 0 0 0 0 0 1 1 3 7 11 15 16 12 6 4 5 7 7 6 6 6 6 5 4 4 4 4 3 4 5 4 2 3 4 4 3
29 26 18 8 2 0 0 0 0 0 0 0 0 0 0 0 0 0 1 2 2 6 10 13 14 12 7 5 6 7 6 6 6 6 6 6 6 4 4 3 2 2 4 4 3 3 3 2 2
23 19 10 3 0 0 0 0 0 0 0 0 0 1 1 0 0 0 1 1 2 4 8 10 12 11 7 6 6 6 6 5 5 6 6 7 6 4 3 3 1 1 1 2 2 2 1 1 1
16 10 5 1 0 0 0 0 0 0 0 0 0 1 1 1 0 0 0 0 1 4 6 8 9 8 7 6 6 5 5 5 5 5 6 6 4 2 1 1 0 0 0 1 1 1 0 0 0
7 4 1 0 0 0 0 0 0 0 1 1 0 1 1 1 0 0 0 0 1 3 4 5 5 4 5 6 6 6 6 6 5 4 4 4 2 1 1 0 0 1 1 1 1 1 1 1 0
3 2 0 0 0 0 0 0 0 0 1 1 2 2 1 0 0 0 0 1 2 2 2 1 1 2 3 4 6 6 6 6 4 3 3 2 1 0 1 1 2 3 3 2 3 3 3 2 1
1 1 0 0 0 0 0 0 0 0 1 2 4 3 2 1 0 0 0 1 2 2 1 0 0 0 1 2 4 5 5 4 4 3 3 2 1 1 1 2 4 6 6 5 6 7 6 3 2
0 0 0 0 0 0 0 0 0 0 1 3 4 4 3 2 1 0 0 1 2 2 0 0 0 0 0 2 3 4 4 4 4 4 3 3 3 3 2 2 4 6 6 4 6 7 5 2 2
0 0 0 0 0 0 0 0 0 1 3 4 4 4 4 4 2 0 0 2 3 2 1 1 0 1 2 4 4 3 3 4 5 5 5 5 5 5 4 4 5 5 4 4 4 4 3 2 2
0 0 0 0 0 0 0 0 1 2 4 4 3 4 5 4 2 0 0 2 3 2 2 2 2 3 5 6 6 4 4 5 6 7 6 6 5 5 5 6 6 5 5 4 3 3 3 3 2
0 0 0 0 0 0 1 1 2 3 4 3 3 4 4 4 3 1 2 4 4 5 5 5 5 6 8 9 8 6 5 6 6 6 5 5 4 4 4 5 6 5 4 4 4 5 6 4 3
0 0 0 0 1 0 1 2 4 4 4 3 4 4 4 5 4 3 3 5 7 10 10 8 7 8 10 10 9 8 6 5 4 4 3 3 4 4 5 6 6 4 3 4 5 6 6 5 4
0 0 0 0 1 1 0 2 5 5 5 5 6 5 5 6 6 5 4 5 10 15 15 11 9 11 13 12 10 9 8 6 6 4 3 4 4 6 7 7 5 3 3 4 3 3 4 4 5
0 0 0 0 0 1 1 2 5 6 5 7 7 7 9 10 10 8 6 6 13 19 20 16 13 15 15 13 11 11 11 10 10 8 5 5 7 8 7 4 2 2 2 2 2 2 3 4 4
0 0 0 0 0 1 1 3 6 7 7 8 10 11 13 14 13 11 8 8 14 21 23 22 19 18 16 13 12 13 13 12 11 10 8 7 8 8 5 3 2 2 1 1 1 1 3 4 3
0 0 0 0 0 0 1 3 7 10 9 10 12 14 16 16 15 14 12 12 15 20 25 27 25 21 19 18 19 18 15 12 11 12 12 11 9 7 5 4 5 5 3 2 2 2 3 3 2
0 0 0 0 0 0 0 2 7 10 11 11 11 14 16 18 19 19 18 17 17 19 23 26 27 25 24 25 25 22 17 14 13 13 13 13 12 9 7 8 8 7 6 5 4 4 4 2 1
0 0 0 0 0 0 0 2 6 8 9 9 9 10 14 19 23 23 21 20 19 18 19 23 27 28 27 27 24 21 19 16 14 12 13 14 14 11 9 9 9 8 8 8 8 8 9 7 4
0 0 0 0 0 0 0 2 5 6 6 6 7 8 12 19 23 23 22 21 18 15 17 23 28 29 28 26 21 19 18 16 13 13 14 15 13 11 10 9 9 8 8 9 10 11 14 13 11
0 0 0 0 0 0 0 2 5 5 3 4 5 6 10 18 23 24 25 23 18 13 16 24 30 30 29 27 23 20 18 16 15 17 18 16 13 11 11 11 10 8 7 8 10 11 14 16 15
0 0 0 0 0 0 0 2 3 3 2 3 4 5 10 17 22 25 27 26 22 16 18 27 33 32 31 28 25 23 20 17 17 19 19 15 13 13 13 13 12 10 8 8 9 11 12 14 14
0 0 0 0 1 0 0 1 1 1 3 5 6 8 12 16 21 24 26 26 25 21 21 29 35 34 31 26 23 22 20 16 14 15 15 13 11 14 15 15 15 13 11 10 10 11 13 13 13
0 0 0 0 0 0 1 1 1 1 4 6 8 10 13 17 21 23 24 25 24 22 22 28 34 35 31 27 24 22 20 14 11 11 11 11 11 14 18 20 18 15 12 11 11 12 13 14 14
0 0 0 0 0 0 1 1 1 2 3 5 7 10 12 16 20 21 20 21 22 21 21 25 32 34 31 29 27 24 22 19 15 13 11 11 12 15 19 21 20 17 13 13 14 14 14 15 17
0 0 0 0 0 0 1 1 2 3 2 3 6 10 12 14 17 17 16 17 18 19 20 24 30 32 30 28 25 23 24 24 21 17 14 13 14 15 17 19 19 18 16 16 17 16 15 17 18
0 0 0 0 0 0 0 1 2 3 2 2 6 10 12 13 14 15 15 15 15 17 20 24 28 30 28 26 24 24 27 27 24 19 16 16 17 17 18 17 18 19 18 18 19 18 17 19 19
0 0 0 0 0 0 0 1 2 3 2 2 5 10 13 14 14 14 16 16 16 17 20 25 27 27 26 25 25 28 30 28 24 19 17 18 19 20 19 17 17 17 17 18 19 19 19 20 20
Wind_Speed
8 11 9 6 4 0 9 12 13 13 13 12 13 13 16 15 11 9 7 9 10 12 12 13 13 13 13 12 11 11 10 11 11 10 10 10 10 10 11 11 11 10 10 10 9 9 9 8 8
9 10 7 4 2 5 10 11 13 12 11 10 13 14 15 15 12 10 8 9 11 11 11 12 14 13 13 12 11 10 10 10 10 9 9 9 9 9 10 10 10 10 9 9 8 8 8 8 7
11 11 5 1 4 8 12 11 11 11 10 10 13 14 12 10 11 8 8 10 10 11 12 14 14 13 12 12 11 10 9 9 9 8 8 8 8 8 8 9 9 9 9 9 8 8 7 7 7
6 6 4 1 6 9 11 11 10 11 11 11 12 12 12 11 9 10 10 10 10 11 12 14 14 13 12 11 10 10 9 8 8 8 7 7 7 8 8 8 8 9 9 8 8 7 7 6 6
7 4 1 4 7 11 11 11 12 11 11 13 14 14 13 12 13 11 10 10 10 10 12 13 14 13 12 11 10 9 9 8 8 7 7 6 6 7 7 7 8 8 8 8 8 7 6 5 5
4 1 1 5 10 11 10 11 11 11 11 12 14 13 11 11 11 10 10 10 10 11 12 12 13 13 11 10 10 9 9 8 7 7 6 6 6 7 7 7 7 7 7 7 7 7 6 6 6
5 2 4 8 9 11 10 11 11 10 11 11 11 11 10 10 10 10 10 9 10 11 11 9 10 10 10 10 9 9 9 8 7 7 6 6 6 7 7 7 7 7 7 7 7 7 7 7 7
2 2 4 6 9 10 9 11 12 12 10 10 9 9 10 10 10 9 9 9 9 9 8 8 8 8 7 7 10 9 8 8 7 7 7 6 6 8 8 8 8 7 7 7 7 8 8 8 8
3 1 5 7 8 8 8 9 10 11 10 11 12 13 13 12 11 9 8 8 8 8 7 6 6 6 5 6 8 8 8 7 6 6 7 6 4 6 7 7 9 9 9 9 9 9 9 10 10
1 4 6 7 7 7 7 7 8 9 9 10 13 14 14 11 10 9 8 8 7 7 6 6 6 5 3 4 4 3 4 5 4 4 5 4 3 2 4 7 9 10 10 10 11 11 10 9 6
3 4 5 6 7 6 7 8 8 9 8 11 12 12 11 10 9 8 8 7 7 6 5 5 5 4 3 3 2 1 2 2 2 3 3 2 2 2 3 3 5 6 9 6 7 8 6 6 4
1 3 5 5 5 5 7 9 9 11 10 12 12 11 10 8 8 8 8 7 7 6 5 5 5 4 3 2 1 1 1 2 1 2 2 2 1 1 1 2 3 4 3 4 3 3 4 3 3
1 3 4 3 4 5 6 8 9 10 11 12 12 10 9 7 7 7 7 7 6 5 5 5 4 4 2 1 1 1 1 1 2 2 1 1 1 1 1 0 1 2 2 3 3 3 3 3 3
2 2 2 1 2 4 6 7 8 9 10 11 11 10 8 6 7 7 6 6 6 5 5 4 4 4 2 1 0 1 1 0 1 1 1 1 0 0 0 0 1 1 1 2 2 3 3 3 3
3 2 3 2 1 4 6 6 7 8 9 10 10 9 8 7 7 6 5 5 6 5 5 4 4 4 2 1 0 1 1 1 1 2 2 1 1 0 0 1 1 1 2 2 2 2 2 2 2
5 5 5 2 2 3 3 5 6 7 8 9 9 8 8 7 7 6 6 6 6 6 5 3 3 4 3 1 1 1 1 2 1 1 1 1 1 0 1 1 0 1 1 1 1 2 2 1 2
8 5 4 2 1 1 3 5 6 8 8 8 8 8 8 7 7 7 7 7 6 6 5 3 3 3 2 2 1 0 1 1 1 1 1 1 0 0 1 0 0 1 1 1 2 1 1 1 1
6 6 3 1 1 1 3 4 6 5 7 8 8 8 8 7 7 7 7 7 6 5 5 4 3 2 1 1 0 0 1 1 1 1 1 1 0 0 1 0 0 1 1 1 1 1 1 1 1
8 7 4 2 1 1 1 4 7 6 6 7 7 8 8 8 8 7 7 7 6 5 4 3 2 2 1 0 0 0 0 0 1 1 1 1 0 1 0 1 0 1 0 1 1 1 1 1 1
7 7 4 2 1 1 2 3 7 7 7 6 7 8 8 9 9 8 8 7 6 5 4 3 2 2 1 0 0 0 0 0 1 1 2 1 0 0 0 0 1 1 0 1 1 1 1 1 1
7 6 5 5 5 5 3 3 6 7 7 6 6 7 9 9 10 8 7 7 6 6 5 3 3 2 1 1 0 0 1 1 1 1 1 1 1 1 1 1 0 0 0 1 2 1 2 2 1
7 5 6 7 7 5 4 2 5 4 5 6 5 6 8 8 9 9 7 6 6 6 5 4 3 2 2 2 0 0 1 1 1 1 1 1 1 1 1 1 1 1 0 0 1 1 1 1 1
8 7 8 7 8 7 4 1 3 4 4 5 6 5 7 8 8 8 7 6 6 6 5 5 4 3 2 2 1 1 1 1 1 1 2 1 1 1 2 2 1 1 1 0 1 0 1 1 1
8 9 9 7 6 6 4 3 1 4 4 6 7 7 6 8 7 7 7 6 5 5 5 5 5 3 2 2 2 1 1 1 2 2 1 1 1 1 2 2 2 2 1 1 1 1 1 1 1
8 7 5 5 3 4 3 1 2 6 6 7 8 7 7 7 8 7 6 6 5 5 4 5 5 4 3 3 2 2 1 1 1 1 1 1 1 1 2 2 2 2 1 1 1 1 1 1 1
7 7 5 6 5 3 1 2 5 5 8 8 8 8 7 7 8 7 6 6 5 5 4 5 5 4 3 3 3 2 1 1 0 0 1 1 1 2 2 2 1 2 2 1 1 1 1 0 1
7 6 7 8 9 5 1 2 5 5 8 8 8 7 6 7 8 8 7 6 5 5 4 4 5 4 3 3 3 3 2 1 1 1 1 1 1 1 2 2 2 2 2 2 2 1 1 1 0
8 8 6 6 4 6 3 1 2 5 4 6 7 7 6 5 7 8 7 6 6 5 5 4 4 4 3 3 2 3 2 2 1 1 0 1 1 1 1 1 1 1 1 2 1 1 1 1 1
7 8 6 5 6 5 3 2 4 7 5 5 7 7 7 5 5 8 7 6 6 5 5 4 4 4 3 3 2 2 2 2 2 1 1 0 1 1 1 1 2 2 2 2 1 1 1 1 1
9 9 8 6 5 4 4 0 3 4 4 5 7 7 7 5 5 6 7 6 5 4 4 4 3 3 3 3 2 2 2 2 1 1 1 1 1 1 1 1 1 2 2 2 2 2 2 1 1
Wind_Direction
212 222 225 248 242 200 59 59 60 56 57 54 53 57 60 50 50 78 88 83 89 101 114 119 115 114 112 111 110 108 109 112 116 118 122 125 126 126 128 128 129 131 133 135 137 138 136 131 130
239 236 236 252 306 63 64 61 63 60 62 65 66 63 64 60 65 86 86 87 91 99 110 117 117 115 113 113 112 110 111 113 118 120 124 126 128 131 134 135 136 134 134 137 137 139 136 133 135
254 257 259 226 41 57 62 61 68 70 69 68 74 64 55 66 75 88 95 100 100 103 108 116 120 118 116 115 113 114 114 113 113 116 122 129 133 134 137 139 141 140 141 143 143 141 141 143 149
252 242 231 81 60 64 68 67 69 73 68 63 71 71 66 66 82 96 103 103 102 105 112 118 119 120 121 120 118 117 116 115 117 118 121 133 144 144 142 142 145 145 149 151 149 149 148 153 159
239 257 277 69 66 68 67 65 70 70 67 69 77 83 78 79 92 99 101 99 101 101 108 118 120 120 121 123 123 120 118 119 121 125 127 133 148 151 150 149 150 151 153 156 155 160 161 165 171
262 270 335 64 71 65 64 60 66 70 75 79 87 89 85 94 98 99 98 100 101 106 109 119 124 124 126 127 127 126 125 127 132 133 135 141 151 157 155 156 157 160 161 164 163 171 175 181 186
254 331 25 56 68 67 59 58 57 62 64 69 87 92 102 102 101 101 100 100 97 101 109 121 126 129 133 137 137 136 138 139 145 148 151 154 157 160 164 163 165 170 172 173 176 183 187 193 198
254 345 16 55 62 64 62 65 61 54 54 64 78 93 111 112 111 104 103 97 97 96 100 118 127 131 138 143 144 148 151 150 155 163 166 167 172 174 173 175 175 180 184 186 191 195 198 199 206
256 57 35 50 62 66 65 73 78 76 71 60 68 93 112 121 119 112 100 90 85 89 99 103 108 113 127 138 145 156 161 164 169 174 177 184 189 179 181 175 177 185 190 196 202 204 204 205 211
271 70 49 42 56 65 71 74 84 94 92 88 89 100 117 122 120 115 106 101 95 98 101 100 100 97 103 110 128 152 160 166 186 171 180 186 183 178 171 165 186 193 196 201 207 212 209 210 208
32 49 66 56 51 55 63 62 68 85 86 96 104 113 120 123 121 116 110 103 102 102 97 101 101 98 88 96 136 128 138 154 168 157 174 164 171 179 169 173 185 194 199 203 202 211 212 209 203
73 53 48 56 53 57 64 64 62 68 77 95 107 113 115 117 119 115 112 110 107 101 101 97 101 97 82 75 88 151 157 142 148 156 169 162 188 198 183 186 186 185 184 180 189 206 215 212 205
0 46 50 61 61 57 69 80 79 79 91 101 108 111 111 115 110 108 107 107 104 107 105 95 90 91 87 67 347 108 93 119 139 131 148 151 188 194 152 198 183 191 168 168 181 201 201 217 226
14 21 20 20 30 90 80 79 85 97 105 110 115 117 117 114 106 106 114 115 114 112 109 110 109 101 99 100 46 43 56 113 121 127 121 100 74 54 23 228 187 189 168 167 180 194 196 217 223
317 308 271 262 259 129 110 91 97 114 118 119 120 122 121 112 107 108 107 113 118 116 109 110 121 108 100 83 335 126 183 127 93 90 98 112 107 101 240 237 206 179 166 167 183 198 198 216 222
271 253 249 243 216 179 123 98 117 136 126 123 128 127 121 113 113 112 107 108 111 110 104 103 99 108 112 92 357 356 25 51 75 94 101 91 58 77 253 230 170 156 157 156 170 199 206 215 232
257 248 232 207 216 136 115 116 136 142 135 135 136 135 133 129 123 117 111 110 106 104 106 104 83 89 105 120 155 6 53 65 75 79 86 98 277 273 283 272 106 198 156 164 191 169 195 213 236
283 284 259 240 121 65 90 120 144 151 144 141 141 141 140 136 133 126 119 119 115 109 106 105 99 83 101 124 174 84 56 79 89 85 73 81 17 54 305 248 132 245 168 159 133 169 205 213 220
263 284 293 324 2 342 136 150 153 158 140 141 145 144 143 142 138 134 132 131 124 117 115 115 112 99 100 95 310 141 130 101 81 101 89 95 22 44 279 342 77 260 212 154 157 150 230 235 169
266 285 291 298 229 267 196 168 150 148 143 148 151 149 150 149 148 147 146 144 140 134 129 133 135 129 146 112 267 209 132 123 107 76 105 103 95 27 47 92 292 300 280 158 193 182 200 243 182
267 266 290 309 299 265 239 176 151 142 143 144 147 146 148 151 153 153 157 158 157 149 149 153 151 146 151 116 30 18 116 92 64 75 83 46 50 45 358 64 315 266 222 172 219 199 206 232 222
272 284 289 280 279 267 246 182 126 135 151 145 146 148 150 150 149 153 159 164 162 158 155 142 135 137 137 134 41 37 73 65 48 37 64 69 63 37 8 18 347 299 323 141 244 192 229 216 227
290 299 287 283 281 284 295 278 158 162 171 153 146 142 149 147 148 149 154 163 162 158 151 144 133 128 136 148 142 79 33 43 46 48 50 46 56 35 18 29 7 348 343 344 308 316 241 233 245
284 285 278 269 271 273 282 281 163 165 171 153 145 145 141 138 136 132 138 140 144 143 139 133 127 128 139 144 127 104 78 57 39 40 62 45 71 48 34 36 24 11 351 345 345 325 284 290 288
265 274 283 276 241 249 246 201 149 147 147 138 130 125 125 127 125 129 132 134 132 132 132 129 127 135 141 143 138 132 135 125 86 32 27 6 43 49 37 30 30 12 354 350 357 2 309 291 282
268 269 277 293 296 296 242 163 119 111 123 120 121 123 129 130 129 130 127 123 126 132 127 123 126 137 148 153 157 149 140 139 122 84 333 13 30 41 40 38 31 5 357 352 9 7 332 346 306
266 271 278 283 291 299 266 117 110 109 116 115 116 118 122 130 135 134 131 130 128 116 114 125 128 138 150 152 152 143 148 158 85 50 22 30 34 35 47 30 22 11 5 359 16 9 352 12 315
255 275 279 278 293 290 273 155 129 117 119 128 130 125 122 129 137 133 133 133 131 127 115 117 132 142 145 135 140 136 149 144 124 113 85 21 17 21 26 11 11 11 17 0 3 358 355 5 356
245 256 272 296 302 298 309 4 123 139 153 148 133 125 121 117 129 129 130 131 130 128 126 113 106 107 113 117 128 138 137 137 142 130 112 13 0 9 14 353 352 357 359 347 333 317 334 360 342
259 265 265 263 274 284 293 323 121 111 115 115 116 115 112 116 109 116 122 121 121 117 110 110 109 109 106 106 108 101 113 116 117 112 92 53 14 2 3 0 339 339 350 348 333 322 335 352 342